EHI
0 15 35 31 11 2 0 0 0 0 0 0 0 0 0 0 0 0 0 0 0 0 0 0 0 0 0 0 0 0 0 0 0 0 0 0 0 0 0 0 0 0 0
0 13 37 41 25 10 3 0 0 0 0 0 0 0 0 0 0 0 0 0 0 0 0 0 0 0 0 0 0 0 0 0 0 0 0 0 0 0 0 0 0 0 0
1 8 32 53 49 29 12 3 0 0 0 0 0 0 0 0 0 0 0 0 0 0 0 0 0 0 0 0 0 0 0 0 0 0 0 0 0 0 0 1 1 1 0
3 6 29 62 71 52 27 9 1 0 0 0 0 0 0 0 0 0 0 0 0 0 0 0 0 0 0 0 0 0 0 0 0 0 0 0 0 0 0 1 2 2 1
5 11 38 72 83 70 46 20 5 0 0 0 0 0 0 0 0 0 0 0 0 0 0 0 0 0 0 0 0 0 0 0 0 0 0 0 0 0 1 2 3 3 2
7 20 51 79 89 82 64 39 15 3 0 0 0 0 0 0 0 0 0 0 0 0 0 0 0 0 0 0 0 0 0 0 0 0 0 0 0 3 7 9 7 6 5
12 28 59 84 93 91 81 63 36 13 2 0 0 0 0 0 0 0 0 0 0 0 0 0 0 0 0 0 0 0 0 0 0 0 0 0 0 7 21 26 23 20 17
15 32 59 82 93 96 93 82 59 29 7 0 0 0 0 0 0 0 0 0 0 0 0 0 0 0 0 0 0 0 0 0 0 0 0 0 0 9 30 48 53 47 42
11 24 46 65 81 89 92 88 72 43 15 2 0 0 0 0 0 0 0 0 0 0 0 0 0 0 0 0 0 0 0 0 0 0 0 0 1 7 30 61 77 76 73
4 10 24 40 56 66 72 74 67 46 22 6 0 0 0 0 0 0 0 0 1 1 0 0 0 1 1 1 1 1 1 0 0 0 0 0 1 6 27 62 86 92 92
8 9 15 25 35 41 44 47 46 36 21 8 2 1 1 0 0 0 0 0 1 1 1 1 2 2 2 2 3 3 2 1 0 0 0 0 0 5 26 60 86 95 97
19 16 17 23 27 26 23 21 20 17 11 5 2 2 1 0 0 0 0 0 1 1 2 3 5 4 3 3 3 3 2 1 0 0 0 0 1 8 27 59 84 95 97
29 22 17 21 22 17 10 6 5 4 3 1 1 1 1 0 0 0 0 0 0 2 4 7 8 6 4 3 1 1 1 0 0 0 0 2 6 17 37 62 83 94 96
39 27 16 15 15 9 3 1 1 1 0 0 0 0 0 0 0 0 0 0 2 8 15 18 15 10 6 3 1 0 0 0 0 0 0 5 16 34 54 71 84 91 94
46 32 19 15 11 6 3 2 1 0 0 0 0 0 0 1 1 1 1 2 8 20 32 36 28 17 9 3 0 0 0 0 0 0 0 7 26 50 69 82 88 90 91
53 43 31 25 17 13 15 18 16 14 14 13 8 4 4 8 12 13 11 11 20 35 47 51 42 28 16 7 2 0 0 1 1 0 0 7 26 52 75 90 93 91 90
64 61 53 43 36 33 39 46 46 44 43 39 27 18 20 28 36 40 37 35 41 51 57 58 52 40 29 18 8 3 2 3 2 1 1 5 17 41 67 85 91 91 89
77 78 75 68 62 61 65 71 71 68 62 50 35 28 34 46 59 68 69 66 66 66 63 58 53 45 36 26 17 9 5 5 4 2 2 5 12 27 46 65 80 85 83
88 88 87 86 84 82 83 83 79 71 57 40 28 22 26 38 56 75 84 83 80 76 70 60 50 41 35 27 20 14 10 6 3 1 2 5 9 16 24 38 55 64 63
83 83 84 84 83 80 79 76 70 60 46 33 22 14 11 16 33 57 72 78 79 75 70 59 46 38 34 28 21 15 10 5 2 0 1 3 6 9 12 19 29 34 34
58 61 65 65 59 53 50 48 44 39 34 28 21 15 12 11 18 32 47 58 65 65 60 53 46 42 38 31 23 13 6 2 1 0 0 1 2 4 5 9 14 15 14
30 34 40 38 31 25 22 19 18 18 17 18 17 16 18 20 21 24 30 38 46 52 52 48 45 43 38 31 22 11 3 0 0 0 0 0 1 1 2 4 6 6 4
14 18 23 22 17 16 13 8 6 6 6 7 8 10 13 18 22 23 25 28 33 40 45 42 40 37 32 26 19 10 3 0 0 0 0 0 0 0 0 1 1 1 1
9 13 19 20 20 18 14 9 4 2 1 1 1 2 4 7 12 14 18 21 25 29 31 30 29 27 24 20 14 7 2 0 0 0 0 0 0 0 0 0 0 0 0
7 10 17 23 25 23 18 10 5 2 0 0 0 0 0 1 2 5 9 14 18 19 17 16 17 16 15 12 9 4 1 0 0 0 0 0 0 0 0 0 0 0 0
4 7 14 22 26 25 19 12 6 3 1 0 0 0 0 0 1 2 5 8 11 11 10 10 10 9 8 7 6 3 1 0 0 0 0 0 0 0 0 0 0 0 0
Wind_Speed
10 13 20 21 19 18 16 15 14 14 14 14 14 14 15 15 14 14 13 12 11 11 11 10 10 11 11 11 11 11 10 10 10 10 10 11 11 10 9 10 10 7 11
14 15 21 21 20 19 17 15 14 14 13 13 13 13 13 13 12 12 11 11 10 10 9 9 9 9 9 9 9 9 8 8 7 8 8 8 8 8 8 9 10 7 10
17 14 18 21 20 19 18 16 15 14 13 12 12 11 11 11 10 10 9 9 9 9 8 8 8 7 7 7 7 6 6 5 4 5 5 3 3 6 7 11 12 11 9
17 12 14 21 20 20 18 16 15 14 13 12 12 11 10 10 9 8 8 7 7 7 7 7 7 7 6 6 5 4 4 3 2 3 2 3 3 6 7 10 12 11 10
14 11 15 22 21 20 18 16 15 14 13 13 12 11 10 9 8 8 7 7 6 6 6 6 6 6 6 6 5 5 5 4 4 4 2 3 4 8 10 10 12 12 11
13 10 14 20 20 19 18 17 16 15 14 13 12 11 10 10 9 8 8 7 7 6 6 6 6 6 6 6 6 7 7 7 6 3 4 4 5 11 14 13 13 13 13
12 9 12 19 19 19 18 17 16 15 14 13 13 12 11 10 10 9 9 8 8 8 8 7 7 7 7 7 8 8 8 9 5 4 4 4 6 11 16 16 15 14 14
16 11 11 18 18 18 18 17 16 15 15 14 13 12 12 11 10 10 10 10 10 9 9 9 9 9 9 9 9 9 9 10 7 6 4 4 7 12 17 18 17 16 16
15 13 9 11 13 17 17 17 17 16 15 14 14 13 13 12 12 12 11 12 12 12 12 12 12 12 11 11 11 11 11 12 7 5 7 5 7 10 17 19 19 18 17
12 12 10 9 9 9 11 17 17 16 16 15 14 14 14 14 13 14 12 12 14 15 15 15 14 14 13 12 12 13 13 12 7 6 5 7 12 12 15 19 20 19 19
11 10 10 10 9 8 8 13 15 16 16 15 13 16 14 7 7 8 13 15 17 17 17 17 16 15 14 13 15 15 13 6 6 6 6 11 15 15 16 19 20 20 20
13 12 10 11 10 8 9 7 5 7 7 8 6 8 6 6 6 9 11 18 19 19 19 19 17 15 12 6 10 13 6 8 7 7 8 15 17 17 17 19 20 20 19
16 14 13 12 11 10 7 6 4 4 4 6 7 8 6 6 6 7 5 9 12 16 11 11 12 8 7 6 6 6 7 7 6 6 9 16 18 18 18 19 20 20 20
15 15 14 13 12 11 8 7 6 5 5 6 8 10 7 6 6 7 6 7 7 7 8 8 6 8 9 10 9 9 10 7 7 6 8 17 18 19 19 19 19 20 19
15 15 15 14 13 11 9 7 8 8 8 8 8 9 10 8 8 8 7 7 8 7 8 8 8 9 10 10 10 11 11 11 11 9 7 15 18 18 18 19 20 20 20
14 14 14 15 14 11 9 8 8 8 7 7 8 10 12 10 9 9 9 7 7 8 8 8 10 9 9 8 10 11 11 10 10 10 8 10 16 17 18 20 21 21 21
9 10 12 15 14 13 11 10 8 8 7 7 8 11 12 12 12 11 9 8 8 8 9 7 9 7 7 8 9 10 8 8 8 8 8 6 7 14 18 20 20 21 21
4 5 7 10 12 12 10 8 5 5 5 5 5 6 10 13 13 11 9 9 8 6 6 6 6 5 6 5 5 5 5 5 7 8 7 7 6 7 12 20 21 21 22
4 3 3 2 6 6 5 3 4 4 4 4 4 4 6 9 12 10 9 8 6 5 5 6 5 4 4 5 5 5 5 6 6 7 7 8 7 8 7 12 20 23 23
7 5 5 4 2 1 1 2 3 4 4 4 5 5 6 6 8 7 7 7 6 5 5 4 4 4 4 4 5 6 5 6 5 6 8 7 7 9 8 9 9 12 20
8 6 5 4 2 1 0 1 2 3 4 4 5 7 7 7 6 5 6 5 5 6 7 6 5 5 5 3 3 5 5 7 8 8 7 6 7 8 8 8 7 7 7
6 5 4 3 2 1 0 1 2 3 4 4 5 6 7 7 7 6 6 5 5 6 7 8 7 5 4 4 4 3 4 4 5 8 6 5 5 4 5 6 6 6 6
5 5 4 4 3 2 1 0 2 2 3 3 4 5 6 7 7 6 6 6 6 6 7 8 7 8 6 5 6 5 4 6 4 3 4 3 2 2 2 2 2 3 5
5 5 6 5 4 3 2 1 1 2 3 4 4 5 6 6 7 6 6 6 6 6 7 8 7 6 7 6 4 5 5 4 3 3 3 2 2 2 2 2 1 1 2
6 6 5 5 4 3 2 1 1 2 3 4 5 6 7 6 6 6 6 5 5 5 5 6 5 5 5 5 4 3 4 4 5 4 3 3 2 2 2 2 1 1 1
5 4 4 4 2 2 1 1 1 3 5 6 7 7 6 5 5 6 5 4 4 4 4 4 4 5 4 4 4 3 3 3 3 3 3 2 2 2 2 1 1 1 2
Wind_Direction
154 157 153 151 148 144 140 134 128 123 118 115 112 108 106 105 105 108 111 112 111 110 111 109 108 107 107 106 106 107 112 117 120 121 121 121 120 117 118 121 116 110 112
150 156 154 152 149 145 142 138 134 131 127 123 120 117 115 114 113 114 116 118 118 117 116 115 114 112 111 111 111 113 115 117 119 122 126 127 129 123 122 137 129 126 120
145 153 153 153 151 146 144 142 141 139 137 133 131 128 126 125 125 126 126 126 127 127 126 127 126 124 121 121 121 123 122 120 123 134 136 132 147 145 131 132 136 134 130
145 149 153 155 153 150 148 147 147 147 146 145 144 143 141 141 141 142 142 142 142 142 143 143 143 142 144 146 150 154 159 162 171 190 178 195 202 184 168 150 148 146 145
143 147 156 156 156 153 152 152 152 154 155 156 156 157 157 158 160 162 163 165 166 164 166 168 167 166 170 177 184 195 208 219 225 232 241 245 230 206 196 180 167 161 160
143 146 156 157 158 157 156 157 158 160 162 165 166 169 171 174 178 180 182 185 188 186 188 192 194 194 197 203 208 216 226 238 245 232 233 243 236 218 205 198 188 177 174
143 148 155 157 160 161 161 162 164 166 169 172 175 178 182 185 190 193 194 198 204 205 207 211 215 217 219 223 227 231 236 245 248 242 237 235 236 218 203 203 201 191 186
148 151 155 160 162 164 164 166 168 172 176 179 183 187 191 196 200 204 204 208 214 218 220 224 226 226 225 227 232 236 241 248 255 257 256 242 237 220 208 206 205 200 197
152 156 159 164 165 167 169 170 173 178 182 186 190 194 199 203 207 211 214 216 220 224 227 229 230 231 229 229 233 237 242 247 249 252 265 262 260 236 219 212 209 206 204
156 163 166 166 167 168 172 178 180 184 189 193 198 201 206 210 213 216 218 222 225 229 232 233 233 234 234 233 236 241 246 251 246 245 252 259 263 252 233 220 214 210 209
162 170 172 172 172 170 174 186 187 191 196 199 204 208 210 215 219 223 227 227 230 233 235 236 237 237 237 239 240 243 248 243 238 243 244 251 254 253 244 229 220 216 214
172 178 179 180 178 174 185 187 191 198 201 202 203 210 208 208 218 225 232 235 235 236 237 239 240 241 242 241 244 245 241 241 241 243 243 246 250 252 248 235 225 221 218
177 179 182 184 182 182 191 183 193 204 205 212 213 214 216 217 223 230 231 239 239 239 237 239 239 236 235 236 236 233 238 241 238 239 242 245 247 250 246 235 226 222 221
176 184 183 183 184 190 192 190 191 202 207 213 220 219 217 221 225 227 230 231 228 228 225 226 227 229 233 237 239 241 242 240 239 235 239 243 244 244 240 232 224 222 223
180 186 183 183 187 191 193 195 195 203 210 215 217 219 218 220 225 227 228 229 228 223 219 220 224 230 233 237 239 240 243 242 241 235 237 240 239 235 231 225 222 223 225
178 182 181 185 189 190 193 198 201 204 210 216 220 222 219 221 226 228 232 229 225 220 218 217 221 225 229 232 237 238 239 239 239 236 235 240 237 230 226 224 224 226 228
173 172 175 186 190 193 197 200 201 204 207 213 219 224 223 224 226 227 231 231 227 219 215 215 221 223 227 229 236 239 240 239 239 238 237 233 233 230 227 228 229 230 230
153 162 176 186 190 200 205 208 210 213 221 224 223 225 226 226 227 227 230 233 226 216 213 213 213 213 224 224 232 244 249 251 252 251 249 242 231 231 229 232 234 235 236
97 127 148 151 179 202 217 236 249 253 255 257 257 253 247 238 233 229 232 234 225 219 218 223 218 210 223 229 235 245 246 249 253 260 259 254 246 238 229 231 234 236 238
71 69 85 85 87 124 223 257 264 267 264 264 265 267 270 264 253 236 236 236 224 226 230 224 225 227 225 228 248 256 248 245 247 249 254 258 254 250 241 235 233 238 239
77 74 72 74 74 84 339 264 268 269 271 272 265 263 263 261 259 250 247 238 228 231 238 233 228 235 236 219 238 263 261 248 246 249 247 251 259 260 251 239 229 229 237
98 102 103 101 96 91 152 267 263 269 274 267 273 278 272 268 260 253 236 235 231 232 240 236 223 228 234 203 208 237 278 287 256 245 239 241 261 274 269 256 236 228 227
123 139 148 158 155 157 158 333 327 322 316 312 303 292 286 285 280 264 248 239 233 226 236 235 225 227 237 229 206 204 222 241 271 278 244 226 253 286 304 295 258 235 225
166 169 169 174 178 185 176 169 257 283 287 282 285 286 293 292 288 280 264 248 236 229 232 236 228 224 228 237 222 215 219 210 222 278 293 266 276 287 303 309 326 263 213
181 175 176 177 187 197 191 195 256 282 277 287 295 296 297 296 289 281 269 256 244 236 235 236 232 223 218 222 215 208 222 226 217 224 264 292 313 291 285 273 226 191 141
189 175 169 166 190 203 199 235 270 290 300 308 310 308 305 300 294 286 270 252 244 236 232 229 223 216 213 209 204 194 194 200 204 207 226 248 276 283 302 334 106 131 123